This is the latest recevied weather packets stored in our database for station/object G4KVI. If no packets are shown the sender has not sent any weather packets the latest 10 day(s).
| Time | Temp. | Humidity | Pressure | Rain* | Wind** | Luminosity | Snow |
|---|---|---|---|---|---|---|---|
| 1788268205 | 21.11° C | 52% | 1022.6 hPa | 0 mm | - | 539 W/m² | - |
| 1788267905 | 20.56° C | 57% | 1022.9 hPa | 0 mm | - | 364 W/m² | - |
| 1788267605 | 20.56° C | 59% | 1023 hPa | 0 mm | - | 269 W/m² | - |
| 1788267305 | 21.11° C | 59% | 1022.9 hPa | 0 mm | - | 213 W/m² | - |
| 1788267005 | 21.11° C | 59% | 1022.8 hPa | 0 mm | - | 205 W/m² | - |
| 1788266705 | 21.11° C | 59% | 1022.8 hPa | 0 mm | - | 857 W/m² | - |
| 1788266405 | 20.56° C | 60% | 1022.8 hPa | 0 mm | - | 745 W/m² | - |
| 1788266105 | 21.11° C | 58% | 1022.7 hPa | 0 mm | - | 220 W/m² | - |
| 1788265805 | 21.11° C | 59% | 1022.8 hPa | 0 mm | - | 586 W/m² | - |
| 1788265505 | 21.11° C | 61% | 1022.6 hPa | 0 mm | - | 381 W/m² | - |
| 1788265206 | 21.11° C | 61% | 1022.8 hPa | 0 mm | - | 799 W/m² | - |
| 1788264906 | 21.11° C | 62% | 1022.9 hPa | 0 mm | - | 294 W/m² | - |
| 1788264605 | 20.56° C | 62% | 1023 hPa | 0 mm | - | 882 W/m² | - |
| 1788264305 | 19.44° C | 65% | 1023.1 hPa | 0 mm | - | 885 W/m² | - |
| 1788264025 | 19.44° C | 65% | 1023.1 hPa | 0 mm | - | 372 W/m² | - |
| 1788263706 | 19.44° C | 66% | 1023 hPa | 0 mm | - | 279 W/m² | - |
| 1788263405 | 19.44° C | 65% | 1023.1 hPa | 0 mm | - | 258 W/m² | - |
| 1788263105 | 19.44° C | 66% | 1023.1 hPa | 0 mm | - | 291 W/m² | - |
| 1788262805 | 18.89° C | 66% | 1023 hPa | 0 mm | - | 304 W/m² | - |
| 1788262505 | 18.89° C | 65% | 1023.2 hPa | 0 mm | - | 239 W/m² | - |
| 1788262219 | 19.44° C | 65% | 1023.5 hPa | 0 mm | - | 199 W/m² | - |
| 1788261905 | 19.44° C | 64% | 1022.9 hPa | 0 mm | - | 220 W/m² | - |
| 1788261605 | 18.89° C | 64% | 1022.9 hPa | 0 mm | - | 231 W/m² | - |
| 1788261305 | 19.44° C | 63% | 1022.8 hPa | 0 mm | - | 276 W/m² | - |
| 1788261005 | 20° C | 63% | 1023 hPa | 0 mm | - | 437 W/m² | - |
* Rain latest hour (hover to see other rain measurements)
** Current wind speed in m/s (hover to see current wind gust speed)